ECMWFFLT1_925_spd_000.txt.gz
Wind_Speed
19 18 18 17 17 16 16 16 16 15 15 15 15 15 16 16 16 15 15 15 16 15 16 17 19 20 21 22 24 25 25 23 21 19 19 20 20 20 19 20 17 12 15 21 23 25 27 27 27 27 27 27 29 28 27 26 27 29 29 29 28 28 26
20 20 19 18 18 17 17 17 16 16 16 16 16 16 16 16 16 16 16 16 16 16 16 18 20 21 23 24 24 24 25 23 20 18 19 20 20 20 19 18 19 17 14 17 22 25 26 25 25 26 26 26 27 28 27 27 27 27 29 29 29 29 27
21 20 19 19 18 18 17 17 17 16 16 16 17 17 17 17 17 17 17 16 16 16 17 19 21 23 24 23 23 25 25 23 21 19 19 20 20 20 21 20 21 20 15 15 20 25 25 24 24 25 26 26 27 28 28 28 28 28 28 29 29 29 29
21 20 20 20 19 18 18 18 17 17 17 17 17 17 18 18 18 18 18 18 18 18 19 21 22 23 23 22 23 25 24 23 22 20 20 22 21 20 22 22 22 22 21 19 19 22 25 26 26 26 27 27 28 29 28 28 28 27 27 29 29 29 29
22 21 20 20 20 19 19 18 18 18 18 18 17 17 18 18 18 19 19 19 20 20 22 24 24 23 21 22 23 24 24 22 21 21 22 23 23 22 23 24 23 23 25 23 21 23 27 27 27 28 27 27 28 28 28 27 27 26 26 27 27 27 28
22 22 21 21 20 19 19 19 18 18 18 18 17 17 17 17 18 19 20 21 21 22 24 25 25 22 21 24 25 25 25 23 22 24 25 25 26 26 25 24 23 23 24 25 25 25 26 25 26 27 26 25 26 27 27 26 26 26 25 25 26 26 26
23 22 21 21 20 19 19 19 18 19 18 18 17 17 17 17 18 19 19 20 21 22 24 24 23 22 24 26 26 26 25 24 24 24 24 25 26 25 24 23 23 23 24 24 24 23 23 24 24 25 25 25 26 27 27 26 24 22 23 23 23 24 24
25 23 21 20 20 19 19 19 19 19 19 18 17 16 17 17 17 17 18 19 20 22 23 23 22 23 25 25 24 24 24 23 23 22 23 24 24 24 25 25 25 23 20 20 21 21 23 24 23 24 25 25 24 22 21 22 22 20 20 21 20 21 22
25 23 22 21 20 19 19 19 20 19 19 18 17 17 17 17 15 15 16 17 19 22 21 21 22 24 24 23 22 21 21 20 20 20 23 24 24 25 26 25 25 21 16 16 17 18 19 19 18 20 22 21 20 19 19 22 23 21 21 22 20 20 20
24 24 23 22 21 20 20 20 20 19 17 17 17 17 16 14 13 14 15 18 20 21 21 21 22 22 22 21 19 19 19 19 19 20 23 24 25 27 27 26 24 20 16 14 15 17 17 13 12 17 20 20 20 21 22 23 22 21 21 19 16 17 18
25 24 23 23 22 21 21 22 21 19 17 16 16 16 15 13 13 14 16 18 20 20 20 22 21 20 20 20 20 20 20 19 19 21 23 24 26 27 26 25 24 22 20 17 15 17 18 13 11 16 19 20 22 22 21 22 22 21 18 11 7 9 12
25 24 23 23 22 22 22 22 20 18 17 17 16 16 15 14 14 14 16 18 19 19 21 22 22 21 21 20 20 20 20 21 23 24 24 26 26 25 25 24 23 24 24 21 17 17 17 15 14 16 18 19 21 21 20 21 21 20 17 12 8 8 11
24 24 23 23 23 23 23 22 20 18 17 17 16 15 15 14 14 15 16 17 18 20 21 22 22 22 21 21 20 19 21 25 27 26 26 27 25 25 26 23 22 24 25 25 23 20 19 19 17 18 20 21 21 21 20 18 18 19 19 17 14 13 15
24 24 24 24 23 22 22 22 20 18 17 17 16 15 14 14 15 15 16 17 18 19 20 21 21 22 22 23 21 20 23 26 26 26 27 26 26 29 29 25 24 25 25 26 25 23 23 24 22 23 25 24 24 24 22 19 18 18 19 19 18 18 20
25 24 23 23 23 22 22 22 20 18 17 17 16 15 14 14 14 15 16 17 17 18 19 20 20 21 22 23 22 22 23 23 24 25 26 27 29 31 30 28 26 25 25 25 24 23 24 25 25 25 26 26 26 27 27 25 25 25 25 25 23 22 24
24 24 24 24 23 22 22 22 19 18 17 17 16 15 14 13 13 14 15 16 16 17 18 19 19 20 21 22 23 24 22 20 21 24 25 27 29 30 30 30 26 22 22 23 22 22 23 23 23 24 23 23 24 25 25 25 24 26 27 23 18 14 17
23 24 25 24 24 23 22 21 20 18 17 17 16 15 14 14 13 13 14 15 15 16 17 18 17 18 19 21 24 24 20 18 21 23 24 26 28 29 29 30 28 25 24 22 20 21 21 20 21 23 22 22 22 21 22 19 15 16 17 13 9 7 9
23 22 24 24 25 24 23 21 20 18 17 18 17 15 15 13 12 13 13 13 14 15 16 16 16 16 17 20 22 21 18 18 20 22 23 24 25 26 27 27 28 29 30 28 25 23 21 19 20 22 21 20 20 19 20 17 13 15 14 9 6 6 6
22 21 22 23 24 23 22 22 20 18 17 18 16 16 15 13 12 13 12 12 14 15 15 15 15 15 15 17 18 18 17 18 19 20 22 22 20 22 25 27 27 28 29 30 29 27 25 22 21 22 22 20 18 16 15 13 12 14 15 11 9 7 5
23 22 21 22 22 21 21 22 20 18 18 17 17 16 15 14 13 13 11 11 12 14 15 16 16 16 16 17 17 17 18 18 17 17 19 18 17 20 24 27 27 25 25 27 28 27 25 22 21 22 21 20 19 16 14 13 11 11 14 15 13 12 8
23 22 21 21 22 22 22 22 21 20 18 17 17 17 15 15 15 13 11 11 12 13 15 17 17 17 17 16 16 17 17 16 16 16 14 14 16 20 22 23 23 23 24 25 26 25 23 21 21 20 19 19 19 17 15 15 13 11 13 15 16 15 12
23 22 21 20 20 22 23 22 22 20 18 18 17 16 15 16 15 12 11 11 12 14 15 16 17 17 15 15 16 17 16 15 15 14 13 14 17 19 19 18 19 22 24 24 24 23 21 21 21 21 20 19 20 19 18 18 16 13 14 16 19 19 16
23 22 21 20 20 21 21 21 21 20 20 19 18 16 16 15 14 11 11 12 13 14 15 16 15 14 13 14 16 16 14 13 14 13 13 16 18 18 18 19 20 22 24 24 23 21 20 21 22 22 21 21 23 23 21 20 17 13 12 15 19 23 25
22 21 20 20 20 20 21 22 21 21 21 20 18 17 16 15 13 11 11 11 13 14 14 13 12 11 12 15 15 13 12 12 13 13 14 16 17 17 19 21 22 24 24 23 22 21 21 22 23 23 23 24 25 24 22 20 17 12 8 9 15 21 26
21 20 19 19 19 20 21 23 23 22 21 19 18 17 16 14 13 11 10 10 11 12 10 9 9 10 11 13 12 11 12 12 12 13 14 15 17 19 21 22 23 24 23 21 21 21 22 23 25 25 24 25 25 23 22 22 21 16 11 6 6 12 16
21 19 18 18 18 19 20 21 22 23 22 19 18 17 15 13 12 11 9 9 10 9 6 6 7 8 9 10 10 10 10 11 11 12 14 16 18 20 21 22 22 23 22 21 21 22 22 24 26 25 24 25 26 24 22 24 24 21 17 13 7 4 5
21 20 19 18 18 18 20 20 21 22 21 20 20 18 16 14 13 12 10 9 8 6 4 5 5 5 6 7 6 6 7 8 11 14 16 18 19 20 21 20 20 20 21 20 21 22 23 24 26 25 24 26 29 28 25 25 26 24 20 18 14 10 9
23 23 22 20 19 18 17 18 20 22 23 23 22 20 18 16 15 14 12 10 7 4 3 3 2 2 3 4 4 5 7 9 12 14 17 18 19 20 21 21 20 21 22 22 22 22 23 25 26 26 25 25 28 30 28 27 28 25 19 18 16 10 8
26 27 26 23 22 21 18 17 21 24 24 23 21 20 19 18 16 15 12 8 5 4 3 2 1 2 3 4 6 7 10 12 14 15 17 18 19 20 21 22 23 24 24 23 23 22 23 25 25 26 26 25 25 28 28 26 28 26 20 17 15 10 8
28 29 28 25 25 25 23 22 23 23 22 21 20 19 17 16 14 12 10 8 8 6 4 4 3 2 3 4 6 8 10 11 13 14 16 18 19 20 22 23 23 23 23 23 23 23 23 24 24 24 25 25 24 25 25 25 28 29 25 20 15 10 10
29 28 27 26 25 24 22 19 18 19 21 21 20 19 16 15 14 13 11 10 10 8 6 6 5 3 3 2 3 5 7 8 10 12 14 16 18 20 21 23 23 23 23 22 22 23 23 23 24 24 24 24 23 23 24 25 26 29 31 28 20 13 13
27 26 26 25 25 24 21 17 16 20 22 22 20 19 18 16 15 14 13 11 10 8 7 7 6 5 3 1 1 3 5 6 8 10 12 14 17 19 20 21 21 21 22 21 22 23 24 23 23 23 23 23 23 22 23 24 24 25 29 29 22 16 17
26 26 25 24 23 23 21 19 18 21 22 21 20 20 18 16 15 14 14 13 11 10 9 8 7 6 4 3 1 1 3 5 6 8 10 12 14 16 17 18 19 20 21 21 21 22 23 23 23 23 22 23 24 23 22 22 23 23 24 24 19 16 19
24 26 26 25 24 23 22 20 20 21 22 21 21 20 19 17 16 14 12 11 12 12 10 10 9 8 6 4 3 1 1 3 6 7 10 11 12 13 15 17 18 20 21 21 21 22 23 23 23 23 23 22 23 23 22 22 23 23 22 22 19 15 18
22 25 26 25 24 24 23 22 22 22 22 22 22 22 21 19 18 16 14 12 12 12 12 11 11 9 8 6 4 2 2 2 4 6 9 10 11 12 15 16 18 19 20 20 21 21 22 22 23 23 23 22 22 23 22 21 23 22 21 22 20 17 17
18 22 25 25 25 24 24 24 24 23 23 23 23 24 24 22 20 19 17 16 15 14 13 12 11 9 9 8 5 4 3 1 2 4 6 8 8 11 14 14 15 16 18 19 20 20 21 22 23 24 24 22 22 23 22 21 22 22 21 22 22 19 18

ECMWFFLT1_925_spd_003.txt.gz
Wind_Speed
34 33 32 30 29 27 27 25 23 22 22 23 23 23 23 22 22 22 21 20 19 18 18 17 17 18 18 18 18 19 20 19 20 22 21 20 20 20 20 20 17 13 18 28 32 31 33 34 32 31 30 29 30 30 29 28 29 30 30 30 31 30 29
34 33 31 30 29 28 27 26 24 24 24 24 24 24 23 23 23 23 22 21 20 19 18 17 18 19 19 19 20 22 22 22 22 23 23 22 20 21 21 20 19 18 16 21 29 32 34 35 32 31 32 30 30 31 31 30 30 31 31 31 30 29 29
33 33 31 30 29 28 27 26 25 25 25 25 25 24 24 23 23 24 23 22 21 20 19 19 19 20 20 20 22 23 23 23 25 25 24 23 21 22 23 21 21 22 18 18 26 31 32 33 32 32 33 32 32 32 31 31 30 29 28 29 28 28 28
33 32 31 31 30 29 28 27 26 26 26 26 26 25 25 24 24 24 24 23 22 21 20 20 20 21 21 22 23 24 24 24 25 26 24 23 23 22 23 23 21 23 25 22 24 29 31 32 33 33 33 32 32 32 31 29 28 27 27 27 27 26 27
33 32 31 31 30 29 28 28 27 27 27 27 26 26 25 25 25 25 25 24 23 22 21 21 22 22 23 24 24 24 24 25 26 26 23 22 23 22 23 24 23 24 27 27 26 28 31 32 32 33 32 29 29 30 30 28 26 26 26 26 27 26 26
32 32 31 31 30 30 29 28 27 27 27 27 26 25 25 25 25 26 25 25 25 24 23 23 23 24 25 25 25 25 25 27 27 25 23 22 22 24 23 23 23 24 25 27 27 28 30 31 30 29 28 26 25 27 28 28 28 26 25 24 24 25 25
31 31 31 30 30 30 30 28 27 27 27 26 26 26 25 25 25 25 25 25 25 24 23 23 24 25 26 26 27 27 26 27 26 24 23 23 23 23 22 21 22 24 24 25 26 26 28 28 26 26 27 26 25 25 25 26 25 23 22 22 21 22 23
32 31 30 29 30 30 29 28 27 27 26 26 26 26 26 26 25 25 25 24 24 23 23 24 23 24 26 27 26 26 25 25 24 23 23 23 21 21 21 22 22 23 23 23 24 24 25 25 25 26 25 24 23 21 19 20 21 21 22 23 22 22 22
31 31 31 30 30 29 28 27 28 28 27 27 27 26 26 25 25 24 24 23 23 22 22 22 23 24 25 25 24 23 23 22 21 20 20 19 19 20 21 22 22 22 22 21 19 20 23 21 21 23 22 20 19 17 18 22 23 23 24 25 24 24 23
30 31 31 31 31 30 28 28 28 28 27 27 27 27 26 25 24 24 23 23 22 21 21 21 23 24 23 22 21 21 21 20 20 20 20 19 20 22 23 22 23 23 22 18 14 17 20 15 13 19 21 20 21 21 22 24 24 23 24 21 20 21 21
31 32 32 32 32 30 28 28 29 27 25 24 25 26 27 26 25 23 22 21 20 20 21 21 21 21 20 20 22 22 21 20 20 19 19 20 21 24 24 24 25 24 23 19 16 18 20 14 13 21 24 22 23 23 22 22 22 23 21 15 10 12 14
32 32 32 32 32 30 29 29 28 26 24 24 24 24 25 25 25 23 21 19 20 20 20 20 20 20 20 21 22 22 21 21 21 21 20 21 23 26 26 25 25 24 23 22 20 19 20 18 18 21 21 18 19 22 22 21 21 21 20 16 11 10 13
32 32 32 31 32 32 31 30 28 25 23 24 24 23 23 24 24 23 20 19 19 19 20 19 20 21 21 21 21 20 20 20 22 24 23 23 24 27 27 24 23 23 23 24 23 21 23 25 23 22 23 22 23 24 22 20 19 20 21 19 17 16 19
33 32 32 31 32 33 31 29 28 26 24 24 24 24 23 23 23 22 20 19 19 20 20 19 20 21 21 20 19 19 20 21 22 23 23 24 25 27 26 24 24 25 25 24 24 25 29 30 28 26 29 31 29 26 23 21 20 21 21 22 23 25 27
33 33 32 31 32 32 31 30 28 26 25 25 24 24 23 23 23 22 21 20 20 20 20 19 19 20 20 20 19 19 19 19 19 20 22 24 24 25 26 26 26 27 26 25 24 26 28 29 28 28 30 29 26 24 24 24 24 22 23 25 25 25 27
33 33 32 32 32 33 33 32 28 25 25 26 24 24 24 23 23 22 22 21 20 20 20 19 19 20 19 19 18 17 16 16 17 19 21 22 23 25 28 29 27 25 23 23 23 24 26 26 27 27 28 26 24 24 25 26 24 22 22 20 15 13 17
32 32 32 32 33 34 35 35 30 26 25 26 25 24 24 23 23 22 21 21 20 18 18 18 17 18 18 18 16 15 15 15 16 18 19 20 22 25 28 30 29 25 21 20 21 22 23 23 24 25 24 24 24 23 24 23 19 17 16 13 8 6 9
30 30 31 33 34 34 35 35 33 27 25 25 25 25 25 24 23 22 21 20 18 17 17 17 16 15 16 16 15 14 14 14 15 17 18 18 20 22 25 28 27 24 23 25 25 22 21 21 21 22 22 22 21 21 21 18 14 14 13 9 7 6 7
27 28 30 32 33 32 31 33 34 29 25 25 25 25 25 24 22 21 21 19 18 17 16 16 16 15 14 14 14 13 13 14 15 16 16 16 16 19 22 23 21 21 25 28 27 24 24 23 21 21 21 21 20 19 18 16 14 14 13 10 9 8 6
25 26 26 28 30 30 29 31 33 30 26 25 25 25 24 24 23 22 20 19 17 16 15 16 16 15 14 14 13 12 12 13 14 14 14 14 15 17 19 19 19 20 21 23 23 24 24 23 22 21 20 20 20 19 17 16 14 13 13 13 12 11 8
24 24 24 25 26 28 29 30 31 30 27 25 25 25 24 24 24 22 20 18 17 16 16 15 15 16 16 14 12 10 11 12 12 11 11 13 14 15 16 17 19 19 18 19 21 22 22 22 22 22 20 19 19 19 18 18 16 15 15 15 14 14 11
22 22 22 23 24 26 28 28 29 29 28 25 24 24 23 23 24 22 20 18 17 17 16 15 14 16 16 12 10 10 10 10 9 8 9 10 12 13 14 14 15 16 17 18 19 20 21 22 23 23 22 20 20 21 22 20 18 17 16 15 17 19 16
21 20 20 21 22 24 26 27 27 28 27 25 23 22 22 22 21 19 18 18 18 17 15 14 15 15 12 9 8 8 8 7 7 7 7 9 11 12 12 12 14 16 18 18 18 19 20 22 23 24 24 22 23 24 24 22 20 17 15 13 15 19 21
20 19 19 19 20 22 24 26 27 27 26 25 23 22 21 20 18 17 17 18 17 16 15 15 13 10 7 6 6 5 5 5 5 6 7 8 11 12 12 13 16 18 18 18 19 19 20 22 24 24 24 25 25 25 24 23 21 17 13 10 10 13 16
19 19 18 18 19 21 23 25 25 26 25 23 22 21 20 19 18 16 16 17 17 16 15 12 8 5 5 4 3 4 5 3 4 7 8 9 11 13 14 15 17 19 19 19 19 19 19 22 24 25 25 25 24 23 24 25 24 20 17 13 9 6 8
18 18 18 18 19 20 21 22 23 24 25 23 21 20 19 18 17 17 15 15 14 13 10 7 5 5 4 1 1 3 4 2 5 7 8 10 13 14 15 15 17 18 19 19 19 19 20 22 24 24 24 24 22 22 24 26 26 23 21 17 12 7 5
18 18 17 17 17 18 20 21 22 22 24 24 23 21 20 18 18 18 16 15 13 12 10 9 7 5 3 2 1 2 1 4 6 7 10 12 14 15 16 15 15 16 18 18 18 19 20 22 23 23 24 24 23 23 25 26 26 24 22 20 15 9 9
19 19 19 18 17 18 17 19 21 23 25 27 27 24 21 20 19 20 19 18 16 13 11 9 7 6 4 3 3 2 3 6 8 10 12 14 15 15 16 16 17 18 20 20 20 20 21 23 23 23 24 24 22 22 24 25 26 25 23 21 17 11 9
22 23 23 21 21 20 17 18 23 27 28 29 28 27 25 24 23 23 22 20 17 14 11 9 7 6 4 3 3 4 6 9 10 11 13 15 16 16 17 18 20 21 22 22 22 22 23 23 23 23 24 24 22 23 23 22 24 25 24 21 18 12 10
26 26 25 24 24 24 23 23 25 25 24 24 25 25 24 24 24 24 22 19 15 12 11 11 8 6 4 4 4 5 8 10 10 12 13 15 15 16 17 18 20 21 21 21 22 22 22 23 23 23 24 24 22 23 23 21 21 25 25 21 16 12 12
26 24 24 25 25 25 25 24 21 19 21 22 22 22 21 21 21 22 20 18 16 14 14 13 10 7 6 4 5 6 8 9 9 11 12 13 14 15 16 18 19 20 20 21 21 22 23 23 23 23 23 23 22 21 22 21 20 23 26 22 16 12 12
24 23 23 24 24 24 25 23 20 19 22 23 22 22 22 20 20 20 18 19 18 16 15 14 12 10 8 6 6 7 8 8 8 8 10 12 13 14 15 17 18 18 19 20 21 22 23 23 24 23 22 22 22 21 21 22 21 22 23 21 16 13 14
23 23 22 23 23 23 24 24 21 21 23 23 23 23 23 21 20 20 20 21 20 17 16 15 13 11 10 8 7 7 8 8 7 7 8 11 11 12 14 15 16 16 19 20 21 21 22 23 24 23 22 23 23 21 20 21 21 21 21 19 15 12 15
20 21 22 22 22 22 23 23 23 22 23 24 25 25 24 22 21 20 19 20 19 19 18 17 14 13 12 10 8 8 8 8 6 6 7 9 10 11 12 13 15 16 18 20 21 21 22 23 24 24 23 23 23 22 21 20 21 21 20 19 16 12 14
16 18 19 20 21 22 22 23 23 23 24 25 26 25 25 23 21 20 19 18 18 18 19 18 16 15 13 11 10 9 8 8 6 5 6 8 10 11 11 12 14 16 17 19 21 22 22 23 24 24 23 22 22 23 22 21 21 21 19 19 18 14 15
11 15 17 18 19 20 22 23 23 23 24 26 27 27 28 26 22 20 20 19 18 18 18 17 16 15 14 12 11 9 9 8 6 5 5 7 9 10 10 11 12 15 16 18 20 21 21 22 23 24 24 23 22 23 22 21 21 21 20 20 19 16 16

ECMWFFLT1_925_spd_006.txt.gz
Wind_Speed
34 34 32 32 33 35 35 34 33 32 31 30 29 28 26 24 23 23 22 22 22 23 23 23 22 22 22 21 20 20 19 18 17 18 18 19 19 19 20 22 18 12 14 23 29 32 34 34 34 34 33 32 34 35 34 34 34 34 34 35 36 35 34
33 33 32 33 34 35 35 35 34 33 31 30 30 29 27 25 24 24 23 23 23 24 24 24 24 24 23 22 21 21 21 21 20 20 21 21 21 22 23 24 23 17 12 17 25 29 31 32 31 31 31 32 34 36 37 36 34 33 33 33 34 35 34
32 32 32 33 34 35 35 35 34 34 32 32 31 29 28 27 26 25 25 25 25 25 24 24 25 25 24 23 22 23 23 23 24 24 24 24 24 24 25 25 25 21 15 14 20 25 27 27 27 29 32 34 35 35 35 34 32 31 32 32 33 34 34
31 32 33 33 32 34 36 35 35 34 33 32 31 30 29 28 27 27 26 26 26 26 25 25 25 25 24 23 23 24 25 24 24 25 24 24 24 24 26 27 26 24 21 17 19 25 26 26 27 29 33 34 33 32 30 30 31 30 31 32 31 32 34
30 32 33 32 32 33 35 35 35 33 32 32 32 31 30 28 27 28 27 27 27 27 27 26 27 26 24 23 24 24 25 24 24 25 24 25 26 25 25 26 25 25 24 21 22 26 26 26 28 29 31 31 30 29 29 29 29 29 29 30 29 30 31
30 32 32 31 31 32 32 34 34 33 32 32 31 31 30 28 28 28 28 27 27 27 27 27 28 27 24 24 25 25 25 26 26 27 27 27 27 25 25 25 24 26 24 22 24 27 27 26 27 28 28 28 26 28 29 28 28 27 25 25 26 29 30
30 32 31 30 31 30 31 33 33 33 32 31 31 30 29 28 29 29 28 27 27 27 28 28 28 27 26 25 25 26 27 27 27 27 28 28 26 25 25 23 24 24 19 18 22 25 24 25 26 27 27 27 26 26 26 25 25 24 23 22 24 28 31
30 31 30 30 30 30 31 32 32 32 32 31 31 31 30 29 30 29 28 27 26 27 28 28 28 28 27 26 26 27 28 28 28 29 29 29 27 25 23 21 22 21 16 17 23 23 23 24 25 26 26 27 26 22 19 21 22 23 24 25 26 26 28
30 29 28 29 31 30 30 31 32 32 32 32 31 30 30 30 30 29 28 27 27 27 27 28 29 28 26 25 25 26 27 27 28 28 29 28 25 22 21 20 21 19 16 19 21 20 22 22 21 23 25 25 23 19 19 23 23 24 26 28 28 27 25
28 29 30 30 31 30 30 31 32 33 32 31 31 31 30 31 30 29 28 27 26 26 26 27 27 27 26 23 22 23 24 25 24 24 24 24 22 20 19 19 19 18 17 19 20 20 20 15 12 20 26 25 25 24 24 26 23 23 26 25 24 24 23
27 29 30 31 30 30 30 31 32 32 30 28 29 30 30 31 30 29 29 29 28 26 25 24 25 25 24 22 21 23 24 23 22 23 24 24 23 21 20 20 20 18 18 20 20 19 16 10 11 21 27 26 25 25 26 26 24 24 24 19 12 13 16
27 28 30 31 30 30 30 31 31 30 28 27 27 27 28 30 30 30 30 30 28 26 24 22 22 22 22 21 21 22 23 23 24 25 24 23 23 22 22 22 22 22 21 22 20 17 16 16 18 22 25 24 25 26 26 26 25 23 21 16 11 11 16
27 27 28 29 30 30 30 30 30 29 27 27 27 26 26 28 29 29 30 30 27 25 23 21 20 19 20 20 19 20 21 23 24 24 23 23 24 24 23 22 23 23 23 22 22 21 23 26 24 23 27 29 27 27 27 26 24 20 17 17 16 17 23
27 27 28 29 30 30 29 30 30 28 26 26 26 27 27 27 28 28 29 29 27 25 23 21 20 19 19 20 20 20 21 22 23 23 23 24 24 24 24 23 22 22 21 22 24 25 28 31 29 28 33 34 30 28 29 27 23 17 15 19 22 24 29
27 27 28 29 29 29 28 29 29 27 26 26 26 26 27 26 26 27 29 28 26 25 23 21 21 21 21 20 20 20 20 20 21 21 22 23 23 23 24 23 21 20 21 24 26 26 28 29 29 29 32 32 30 30 29 27 25 23 22 24 25 25 27
26 27 28 29 28 28 27 28 27 25 26 27 26 26 27 25 24 25 27 28 26 24 23 22 21 21 21 21 21 21 19 18 18 19 21 21 21 23 23 23 22 21 22 23 23 24 26 27 28 29 29 30 29 28 28 28 27 26 23 20 18 16 18
26 27 27 27 28 28 28 29 27 25 26 27 26 26 26 25 23 23 24 25 24 23 22 22 21 21 21 21 21 20 17 15 16 17 17 18 21 23 22 24 27 26 22 19 20 23 26 26 26 26 25 26 25 24 25 25 22 20 17 12 10 9 11
25 25 26 27 29 29 29 30 28 26 26 26 26 26 26 24 23 22 22 22 21 22 23 22 20 19 19 20 19 17 15 15 14 15 17 18 20 19 20 25 28 26 22 22 25 27 28 26 24 22 22 22 21 20 21 20 19 20 16 9 7 7 10
24 24 24 26 29 28 27 29 28 25 25 26 26 26 26 24 22 21 21 21 20 21 21 21 20 18 17 17 15 14 14 13 13 14 16 16 14 15 20 24 22 20 22 27 29 28 27 24 21 20 20 20 18 18 18 18 20 21 17 12 9 9 9
23 23 23 25 28 27 27 28 28 26 25 26 26 26 25 24 23 22 21 20 20 21 20 21 21 19 17 14 13 14 13 12 13 13 13 12 12 16 19 18 18 20 23 26 27 26 24 22 21 21 21 20 19 18 18 19 20 20 20 17 14 13 10
22 22 22 23 25 27 27 28 28 27 26 26 27 27 26 25 25 24 22 21 20 21 21 21 20 19 17 13 12 13 13 11 11 11 10 12 15 15 15 15 20 23 23 22 22 22 22 23 23 24 23 21 20 19 19 21 22 21 21 20 19 17 12
20 19 20 20 22 24 25 26 27 26 25 25 26 27 26 25 25 25 24 22 20 21 21 20 19 18 16 13 11 12 12 10 9 8 9 12 12 10 12 15 19 19 18 18 19 21 22 24 24 25 24 22 21 21 22 23 24 23 22 21 22 23 19
17 17 17 17 19 21 23 24 25 25 25 25 26 26 26 25 24 24 24 23 23 22 21 19 17 15 13 11 10 11 9 6 5 6 8 8 8 9 11 14 14 14 15 17 19 20 22 23 23 24 24 23 23 24 24 24 25 24 22 20 20 22 24
15 15 14 15 16 18 20 21 23 24 24 25 25 25 25 23 22 22 23 23 23 21 18 16 15 13 11 9 8 7 5 3 3 4 5 5 6 9 11 11 11 14 16 18 19 19 20 22 23 24 24 24 25 25 24 24 24 23 21 18 16 16 18
14 14 14 14 14 15 17 20 21 23 23 23 23 24 23 22 21 20 21 21 20 17 16 15 12 8 6 6 5 6 6 6 3 1 2 4 5 8 9 9 10 14 17 18 18 18 19 22 23 23 23 23 23 22 22 23 24 24 22 18 13 11 10
13 13 13 13 13 14 16 18 20 22 23 23 22 22 22 22 20 19 19 18 17 15 14 12 9 7 6 5 6 7 6 5 3 1 2 3 5 6 7 9 11 14 16 17 17 18 20 21 22 22 21 21 22 22 22 23 24 24 23 20 16 11 9
12 12 12 12 12 13 15 17 18 19 21 23 21 21 22 22 20 19 18 16 15 16 15 12 9 7 7 6 5 5 4 3 3 2 2 3 4 6 8 10 11 12 14 15 16 18 19 20 21 21 22 22 22 23 23 23 22 22 22 21 17 12 11
13 14 14 13 13 14 13 14 17 19 22 25 25 23 23 22 20 19 19 18 18 19 16 13 10 9 9 9 7 5 4 4 2 0 1 3 4 6 8 10 10 11 13 15 16 17 19 20 20 21 22 23 23 23 24 23 22 21 21 21 17 10 10
17 18 18 18 17 16 13 13 18 23 25 28 28 26 25 25 23 21 20 20 21 20 16 12 11 11 11 10 8 7 6 5 3 2 3 4 6 8 9 11 13 14 15 15 16 18 19 20 20 20 22 23 22 23 24 22 20 20 22 21 16 10 10
20 20 21 20 20 20 19 19 22 23 23 23 24 24 24 25 25 23 21 21 21 20 16 13 12 12 12 11 10 10 8 7 5 4 4 5 7 9 11 13 14 15 16 16 16 17 18 18 19 20 21 22 21 22 24 23 20 20 21 20 16 10 11
20 20 19 20 20 20 20 20 19 19 20 22 23 23 23 22 22 23 23 23 22 19 16 15 15 14 13 12 12 11 9 8 6 5 5 6 8 10 11 13 14 15 15 16 17 18 18 18 19 19 20 21 20 20 22 23 22 21 20 20 17 11 11
17 18 18 18 19 19 18 18 17 17 20 22 23 23 23 22 22 23 23 24 23 19 16 16 17 16 15 14 13 12 10 8 7 6 6 6 8 10 11 12 13 13 15 16 17 18 18 19 19 19 20 20 20 20 20 21 22 22 20 19 17 13 13
15 16 16 17 18 18 18 18 18 18 19 21 22 24 24 23 23 24 24 24 23 20 18 18 18 17 17 17 15 13 11 9 7 6 6 6 7 9 10 10 10 11 13 16 16 17 18 19 20 20 20 21 21 21 20 20 21 21 20 18 16 13 13
12 13 14 16 18 19 19 18 17 18 20 21 22 23 24 23 23 23 24 24 23 21 20 19 19 18 18 18 16 13 12 10 9 7 6 6 6 7 9 9 9 10 13 15 16 17 18 19 21 21 21 22 22 22 22 21 21 21 20 19 17 14 14
9 9 9 12 15 18 20 19 18 18 20 22 22 23 24 24 22 22 22 22 22 22 21 22 21 20 20 19 17 14 13 11 10 8 7 6 6 7 8 9 9 11 13 14 16 17 18 19 21 22 21 21 21 22 22 21 22 22 20 19 19 15 16
7 7 6 8 11 15 19 21 19 18 21 22 23 25 26 24 21 20 20 21 22 21 21 21 22 21 21 20 18 15 13 11 10 9 8 6 6 7 9 9 10 10 12 13 14 16 17 19 20 22 22 22 22 22 21 21 22 21 20 21 20 17 18

ECMWFFLT1_925_spd_012.txt.gz
Wind_Speed
25 26 28 30 32 33 34 35 35 35 36 38 38 39 40 38 36 33 29 28 31 32 31 31 31 30 29 26 25 25 25 25 25 25 24 23 22 22 21 19 14 9 9 12 17 20 22 22 22 23 24 26 29 33 34 33 33 33 32 32 33 33 31
27 26 28 30 32 33 34 35 35 36 37 38 39 39 39 37 34 32 30 28 30 31 31 30 30 30 29 27 26 26 26 26 26 26 25 24 24 23 22 21 19 13 9 10 15 20 21 20 21 23 25 27 30 33 33 33 33 33 32 32 31 30 29
28 27 28 30 31 33 34 35 35 36 37 38 39 40 39 37 34 32 31 31 31 31 31 29 29 29 29 27 27 27 27 27 27 27 26 26 25 25 24 23 22 18 12 11 15 19 21 21 21 24 27 29 30 31 31 31 31 32 32 31 29 28 29
28 28 28 30 31 32 34 35 35 36 37 37 37 39 40 38 34 32 32 33 33 32 31 29 29 29 29 28 27 28 27 27 27 28 27 26 26 26 25 24 23 21 18 15 15 18 21 22 24 27 29 29 28 28 29 28 30 31 31 30 28 27 28
28 28 29 31 32 33 34 35 36 36 36 36 36 37 38 37 35 34 33 34 34 32 31 30 30 30 28 27 28 27 27 27 28 28 27 27 26 26 25 23 21 21 21 19 18 19 21 23 25 27 27 27 25 26 27 27 28 28 28 28 26 25 28
28 29 31 32 33 33 33 34 36 37 35 36 36 36 36 34 34 33 33 33 33 33 31 31 31 30 28 28 29 28 28 28 28 29 28 27 27 26 24 22 21 21 21 21 23 22 20 21 21 21 24 25 23 23 25 25 26 25 23 23 23 28 34
29 30 31 33 33 33 32 33 35 36 34 34 36 35 34 33 32 31 32 32 33 33 32 31 31 30 28 29 31 31 30 29 29 29 28 28 27 25 23 22 21 21 21 21 21 20 19 18 17 19 24 25 22 22 22 22 23 23 21 21 25 34 40
31 30 31 32 32 32 31 32 34 34 33 33 34 34 33 32 31 30 30 31 32 32 32 31 31 31 30 31 31 31 30 29 29 28 27 27 27 25 23 21 21 21 21 20 18 17 17 17 16 19 23 23 20 19 17 18 22 23 24 28 33 36 36
30 29 29 30 30 30 29 30 33 33 33 34 33 33 32 31 31 30 29 30 30 30 30 30 30 30 31 31 30 29 29 28 28 27 26 26 25 24 22 21 21 20 18 16 14 15 16 15 16 20 23 21 19 18 20 23 24 24 27 33 36 34 30
29 28 29 29 28 28 28 29 31 33 35 35 35 34 32 30 31 30 29 29 28 28 29 30 30 30 30 30 29 27 26 25 25 25 25 25 24 24 23 22 21 20 18 15 11 13 14 12 15 21 21 19 20 21 22 21 20 23 30 32 30 28 24
27 27 28 28 27 27 27 28 29 32 34 34 32 33 32 30 30 31 29 28 27 28 29 29 28 28 28 28 27 25 23 22 22 22 22 22 22 23 23 23 22 20 19 17 12 11 12 10 12 18 19 19 21 20 18 21 24 27 28 23 17 16 17
26 27 27 26 26 26 27 28 29 30 31 30 28 30 32 31 30 30 29 28 28 28 28 28 27 27 27 28 27 25 23 22 20 20 20 20 20 21 22 23 21 17 15 15 12 10 11 12 14 17 19 20 22 21 22 28 28 24 22 20 16 15 19
26 26 25 25 25 26 26 28 29 28 28 28 28 28 30 30 30 30 29 28 28 27 27 27 26 26 27 28 26 24 24 24 22 20 19 18 19 20 20 18 17 16 15 17 17 15 16 17 18 19 21 22 22 23 27 28 22 17 19 20 19 21 29
25 24 24 25 25 25 25 27 28 26 26 28 28 28 29 30 30 29 28 28 29 27 26 26 26 26 27 28 26 24 24 25 24 22 21 19 19 20 20 19 19 20 20 20 21 21 22 24 24 25 26 26 24 24 26 25 21 20 23 25 28 32 39
23 23 23 24 25 24 24 26 26 25 26 27 26 27 28 29 29 27 26 26 27 27 26 26 26 27 28 27 25 24 24 23 22 21 20 18 19 20 20 21 22 22 21 21 21 23 25 25 25 25 25 24 23 24 25 26 26 29 32 35 35 35 36
21 21 22 23 24 23 23 24 24 24 25 25 24 25 26 26 27 27 25 25 25 25 25 26 27 28 27 25 23 22 22 21 19 19 18 18 19 19 19 20 20 18 18 19 19 20 21 22 22 22 22 23 25 27 29 30 31 31 31 28 24 23 26
21 20 20 21 22 23 23 23 23 22 23 23 23 24 24 23 26 26 25 25 26 25 25 27 28 27 26 24 22 20 19 18 17 18 19 19 18 17 18 20 19 16 15 17 17 18 20 22 24 25 26 28 28 28 27 25 25 25 22 16 12 12 16
20 19 19 19 21 23 23 23 22 21 22 21 22 24 23 21 25 27 24 23 25 25 25 27 27 27 26 24 21 19 19 17 17 17 17 16 15 15 17 18 17 16 16 18 19 21 22 24 27 29 29 29 29 26 22 19 21 23 19 14 11 10 14
19 17 18 19 21 22 22 21 21 20 21 21 21 24 22 20 24 26 24 22 23 22 24 25 25 25 25 23 19 18 18 16 15 16 15 15 15 16 17 17 16 16 17 18 20 22 24 26 27 27 27 26 25 22 19 17 20 21 18 16 15 14 13
17 16 17 18 19 20 19 20 20 20 21 20 20 22 22 21 22 24 23 23 22 22 22 23 23 23 22 21 19 17 17 15 14 15 15 16 16 15 16 16 14 13 14 16 19 22 25 26 26 26 24 23 21 18 16 15 16 17 18 19 20 18 13
15 15 15 16 17 18 19 19 20 20 20 19 19 21 22 22 22 23 23 23 23 23 22 22 23 23 21 19 18 17 16 14 13 13 13 14 14 14 13 12 10 11 13 17 20 22 23 24 24 23 22 20 20 18 16 15 15 16 19 20 22 22 18
13 13 13 14 15 17 18 19 20 20 19 18 19 21 22 23 24 24 23 22 22 22 23 23 24 24 21 19 17 16 14 13 11 10 12 12 10 8 9 10 11 13 16 18 18 19 20 21 22 23 23 22 22 20 19 17 16 16 18 20 22 24 23
11 11 11 11 13 16 17 18 19 19 18 18 19 20 22 23 24 25 25 24 22 22 24 24 24 23 21 18 16 14 13 11 10 10 10 8 8 9 11 12 14 15 15 15 14 16 18 19 21 23 24 25 24 23 20 18 17 16 17 18 20 23 26
10 10 10 10 11 14 15 17 18 18 17 17 18 19 20 22 23 26 27 26 24 24 25 25 23 22 21 18 15 13 12 10 11 11 9 8 10 12 13 12 12 12 11 11 12 15 17 19 20 22 24 25 25 23 21 19 18 17 16 16 19 22 25
8 9 9 9 10 12 14 15 16 17 16 16 16 17 18 20 22 26 28 27 26 25 25 24 22 20 19 17 15 13 13 12 11 10 9 10 12 11 10 9 9 8 7 9 12 14 16 18 20 21 21 22 22 21 20 21 20 19 18 18 20 22 22
7 7 7 8 9 11 12 14 15 17 17 16 15 15 16 18 19 24 28 29 27 26 24 22 21 20 19 18 16 16 16 15 12 10 9 10 8 7 6 6 6 5 6 9 11 13 16 18 19 19 19 19 20 20 21 23 23 22 22 21 22 23 24
7 6 6 7 8 10 12 13 15 16 17 17 16 15 16 17 18 21 27 28 26 25 23 21 21 21 21 20 18 17 17 15 12 11 10 7 5 4 4 3 3 5 7 10 11 12 15 16 17 18 19 20 20 21 22 22 22 22 23 23 22 21 21
7 8 8 8 9 10 10 11 14 16 18 19 19 18 18 18 17 19 26 28 25 24 24 23 24 25 23 22 20 17 16 14 13 11 8 6 4 4 2 0 2 5 7 9 10 11 13 15 16 18 20 21 21 21 22 23 22 21 21 22 20 16 16
9 10 11 11 12 11 9 9 14 19 21 21 21 20 20 21 18 19 26 30 28 27 28 28 27 26 23 21 19 17 15 14 13 11 8 7 5 4 2 2 2 4 7 8 10 11 13 15 17 19 20 21 21 21 23 24 23 22 21 20 17 13 14
11 12 12 11 13 14 12 12 15 18 19 19 19 20 21 20 19 20 27 32 32 32 31 27 24 23 22 21 19 17 17 16 14 13 11 9 7 5 4 4 5 7 8 8 10 11 12 14 16 18 19 20 21 23 25 24 23 22 20 18 16 13 14
9 10 11 11 12 13 14 14 13 13 17 18 18 20 20 19 18 23 30 35 34 31 28 24 21 19 20 20 19 18 19 18 16 14 12 11 9 7 5 5 7 8 8 8 9 11 12 14 15 15 16 17 19 21 24 25 25 24 22 19 17 13 13
6 6 7 10 12 11 11 12 12 12 15 18 18 19 20 20 20 25 32 35 33 28 23 22 21 19 19 20 19 18 19 18 16 15 14 13 11 9 7 7 8 8 8 9 10 11 12 14 14 14 14 15 18 19 22 25 26 26 24 21 18 15 15
5 5 4 5 10 12 10 11 13 13 15 17 18 19 20 21 23 27 31 32 29 24 20 20 21 20 20 21 19 19 19 18 16 16 14 13 11 10 9 9 8 7 7 8 9 10 11 13 13 14 14 15 17 18 19 22 24 24 23 21 19 18 18
7 5 3 2 7 13 12 11 13 14 15 16 18 20 21 22 24 28 30 29 26 24 22 21 20 19 21 21 20 20 20 19 17 17 15 13 12 10 10 10 8 7 7 8 8 9 11 12 13 14 15 16 17 18 19 21 22 22 22 21 19 18 19
10 7 3 2 5 12 15 14 13 14 16 17 19 21 23 23 23 24 24 24 24 24 24 23 22 21 22 22 21 21 21 20 19 18 16 14 13 12 11 10 8 7 7 7 8 9 11 12 13 13 14 14 16 19 19 20 21 21 20 20 19 18 19
10 9 3 2 5 11 16 16 14 14 16 18 20 22 24 22 19 19 19 19 20 22 23 23 23 23 23 22 22 22 21 20 19 18 16 14 13 12 11 10 8 7 7 6 7 8 10 11 12 14 14 14 15 17 18 18 20 20 19 20 20 19 18

ECMWFFLT1_925_spd_015.txt.gz
Wind_Speed
30 29 27 25 25 26 29 32 33 33 34 35 36 37 37 37 37 39 40 40 39 38 38 38 37 36 36 35 33 32 31 30 29 28 27 25 23 21 21 20 17 11 9 10 13 13 13 13 13 16 18 18 18 18 19 20 21 24 26 27 29 30 31
29 30 28 26 26 26 27 30 33 33 34 35 37 36 35 35 37 40 39 37 37 37 34 34 35 35 34 34 33 33 32 30 30 29 26 25 24 21 21 22 20 14 11 11 12 13 14 13 14 15 16 16 17 19 19 21 23 22 23 25 26 27 28
28 29 28 26 25 25 26 28 32 33 34 36 37 36 36 36 38 41 38 35 36 36 34 32 32 32 32 33 33 33 32 31 31 30 28 27 26 23 22 22 21 18 13 12 12 13 14 14 14 15 15 16 18 20 21 23 23 22 22 24 25 25 26
26 26 26 24 24 25 25 27 30 32 34 36 37 36 36 36 38 39 38 36 36 36 36 34 33 32 32 32 33 33 32 31 32 31 29 29 28 25 24 24 23 21 17 14 14 14 15 16 16 15 16 17 18 19 21 23 22 21 22 24 24 24 25
26 25 24 24 25 26 26 27 30 31 33 36 36 34 34 35 36 37 37 37 36 36 37 36 34 33 33 32 32 33 33 32 32 32 30 28 27 26 26 25 24 22 19 17 18 18 17 18 18 18 17 16 17 18 21 22 21 20 21 22 23 22 22
26 25 25 26 27 27 28 28 29 31 33 35 35 34 33 35 35 35 35 36 36 36 36 36 35 34 35 34 33 34 34 33 32 33 31 29 29 28 27 24 22 19 17 17 20 20 18 19 20 19 17 15 15 19 22 21 19 18 18 19 19 19 19
27 26 26 26 27 27 28 28 28 31 33 33 33 34 33 34 34 33 33 33 34 34 34 35 35 34 35 36 34 34 33 31 31 31 31 32 32 30 27 24 21 18 16 16 18 19 19 20 20 19 17 15 15 18 20 19 18 17 16 16 18 19 21
28 28 26 25 25 25 26 27 28 30 32 32 33 33 33 33 32 31 29 29 31 32 33 33 34 35 35 35 35 35 33 32 31 31 30 31 31 28 26 24 20 17 15 15 16 17 18 19 19 19 18 17 15 15 17 16 17 18 19 20 20 21 23
29 29 27 25 25 25 25 27 29 30 32 32 33 33 33 32 31 30 28 28 28 30 31 32 32 33 34 34 34 35 33 32 31 31 31 31 30 28 26 24 21 16 14 13 14 15 17 18 18 18 18 17 15 15 15 15 17 21 22 23 24 24 23
28 28 27 26 26 25 25 27 29 30 32 33 33 33 32 31 30 29 28 28 28 28 29 30 31 32 34 34 34 33 32 31 31 31 31 30 30 29 27 26 21 14 11 12 13 15 16 14 14 18 20 20 18 16 16 17 19 22 22 22 24 24 22
28 28 28 26 26 25 25 27 29 29 29 30 32 33 33 31 29 29 29 29 28 29 29 29 30 31 31 32 32 31 30 28 28 28 27 28 28 28 28 28 23 15 12 13 13 15 16 14 15 18 20 18 16 15 17 20 21 23 24 22 20 18 16
29 30 28 25 24 24 25 27 29 27 27 28 30 33 33 31 28 29 31 30 28 29 31 30 29 29 29 30 30 30 28 26 24 23 23 24 24 24 25 26 24 20 17 17 16 14 14 13 12 12 12 11 13 18 21 23 23 21 22 22 20 19 19
28 30 28 25 24 25 25 26 26 25 26 28 30 31 32 31 29 29 32 31 29 29 30 31 29 27 27 28 28 27 27 26 24 22 22 21 21 22 22 23 23 22 21 21 17 11 10 11 10 11 12 13 17 21 22 21 20 17 17 21 21 22 24
27 28 27 26 25 25 25 24 24 24 26 28 29 30 31 31 29 29 30 30 30 31 30 31 30 28 26 27 27 26 26 27 26 24 22 22 22 22 22 22 21 20 20 20 15 11 13 16 17 18 20 21 22 24 23 19 17 15 17 21 23 25 27
26 26 27 27 25 23 23 23 22 23 25 27 28 29 29 29 28 28 28 29 30 30 30 30 30 29 27 27 27 27 27 28 28 26 24 23 23 23 23 22 20 19 19 20 19 19 20 21 21 22 22 22 21 21 21 20 21 23 25 26 27 26 25
26 25 27 27 24 21 21 21 21 22 25 25 26 27 26 27 27 27 26 26 27 28 28 28 29 28 26 26 27 28 26 26 27 26 25 25 24 23 22 22 21 20 20 20 21 21 20 19 19 19 18 19 19 20 23 25 29 31 28 22 20 19 16
26 26 26 25 22 20 20 21 20 21 23 23 25 25 22 24 27 26 25 25 26 28 27 27 28 28 25 25 27 28 25 23 23 25 25 25 24 22 21 20 19 18 17 15 16 18 18 18 18 19 21 24 26 27 28 26 24 23 18 12 11 11 10
26 26 25 23 21 19 19 20 20 20 21 22 24 24 21 23 26 25 24 24 25 26 26 25 25 26 26 26 27 27 24 21 22 24 25 24 21 19 18 18 17 16 16 15 16 19 20 21 22 24 27 28 29 29 27 22 21 20 15 12 10 9 10
24 25 24 21 20 18 17 19 19 18 19 21 23 23 20 22 25 24 23 23 23 23 24 23 22 23 26 27 26 24 22 22 23 24 23 22 20 17 17 17 16 15 15 16 17 19 21 22 23 24 26 26 25 24 21 20 21 21 16 13 11 10 10
23 23 21 19 18 16 16 18 17 17 19 20 22 22 20 23 24 23 23 24 24 23 22 22 22 23 25 26 24 22 21 22 23 23 22 22 20 18 16 15 14 14 14 15 16 18 20 22 23 22 22 21 19 17 15 15 16 17 17 14 11 11 10
20 19 17 16 16 15 15 16 16 17 18 18 20 21 21 23 24 23 24 25 24 24 23 23 24 24 23 24 22 21 21 22 22 22 22 21 19 17 16 14 13 12 13 14 15 18 20 21 20 19 17 16 14 12 11 12 12 14 17 17 16 15 12
16 16 14 13 13 13 14 15 16 16 16 17 19 21 22 24 24 24 26 26 24 23 23 24 26 26 24 23 21 21 21 20 19 20 20 19 15 13 14 13 11 11 12 13 14 17 18 17 15 15 14 14 14 13 12 12 11 11 14 17 20 21 19
11 13 11 10 10 11 12 13 14 15 15 16 17 19 21 23 25 26 28 28 26 26 24 24 26 27 25 22 21 20 20 19 18 18 17 15 13 13 14 12 10 11 11 12 13 14 14 13 12 13 14 15 15 15 14 14 13 12 13 15 18 21 24
9 9 8 7 7 8 10 12 14 15 15 15 16 18 19 22 25 27 28 28 28 28 27 26 26 26 24 22 21 20 20 19 19 17 15 14 15 15 14 11 10 10 10 10 10 10 11 11 10 12 14 14 15 15 15 15 15 13 12 13 16 18 20
7 7 7 5 5 8 10 13 15 15 15 15 16 17 18 21 27 29 29 27 27 27 27 26 24 24 23 21 21 21 19 19 18 17 16 17 17 15 12 10 9 8 7 7 7 8 9 9 10 10 11 12 13 14 15 16 16 15 12 12 16 18 18
6 6 6 5 5 7 10 12 15 17 16 16 16 16 17 20 27 30 28 26 26 26 25 24 24 24 23 21 21 22 22 21 19 18 17 17 15 13 11 9 7 6 5 5 4 6 7 8 9 9 9 11 12 13 15 17 18 18 17 16 19 21 22
5 4 5 5 6 7 10 13 15 16 16 16 16 15 16 19 25 30 28 25 25 25 24 24 24 23 22 22 23 25 24 22 20 18 16 13 11 10 8 6 5 5 4 2 2 4 6 7 7 8 10 11 12 14 16 16 17 18 19 20 20 20 22
5 5 6 6 7 7 8 11 15 16 17 18 18 17 16 16 22 29 28 25 25 26 25 24 25 25 25 27 27 26 23 21 19 15 12 10 9 7 6 6 6 4 2 0 2 3 5 5 6 8 11 12 13 15 16 16 17 17 18 19 17 14 16
8 7 8 8 9 8 7 10 14 18 19 21 21 20 19 17 19 26 29 27 27 28 27 26 27 26 26 26 26 23 21 19 17 14 11 9 8 7 7 7 5 3 2 0 1 3 4 5 7 9 11 13 14 15 17 18 18 18 18 18 15 11 12
10 8 7 8 11 11 10 11 12 14 16 18 18 19 19 17 18 25 29 30 31 31 28 25 24 22 22 23 22 20 20 19 17 15 13 11 10 8 8 7 5 3 2 1 0 2 3 5 7 10 12 14 15 17 18 19 18 17 17 17 15 12 13
9 8 5 6 9 10 10 10 9 8 13 17 16 17 18 16 18 25 31 33 32 29 25 22 20 19 19 20 19 18 20 21 19 18 16 14 12 10 9 8 6 5 4 2 1 1 3 5 8 10 12 13 15 17 19 20 20 19 17 16 15 12 13
8 8 5 4 7 8 9 9 8 8 12 16 16 17 18 18 21 27 32 34 32 26 21 20 20 18 17 19 20 20 22 22 21 19 18 16 14 12 11 9 7 6 5 3 1 1 3 5 7 9 11 12 15 17 18 20 22 22 20 19 18 17 16
9 8 6 3 4 7 7 8 10 11 13 15 17 18 19 20 23 29 32 32 29 24 19 20 20 18 19 21 23 23 23 22 21 19 17 15 14 13 12 10 9 7 5 4 2 2 3 4 7 8 9 12 14 16 17 18 19 21 22 21 19 20 21
12 9 6 4 2 7 8 9 10 12 13 15 17 19 20 21 25 29 30 29 27 23 20 19 18 17 19 22 23 24 24 22 21 19 16 15 14 12 12 11 10 7 6 4 3 3 3 4 6 7 9 12 15 16 16 18 19 20 21 20 19 19 20
15 13 8 5 1 6 9 10 10 12 14 16 17 20 22 23 24 25 24 22 22 22 21 21 20 19 21 23 24 24 24 23 21 20 18 16 16 15 14 12 10 8 7 5 4 3 3 4 6 8 10 12 15 16 16 17 18 19 18 19 19 19 19
15 15 9 4 1 6 10 10 10 12 14 16 18 21 23 22 22 21 19 17 17 18 19 20 21 22 24 25 24 23 23 22 21 20 18 17 16 16 15 13 11 9 8 6 4 4 3 4 6 7 10 11 13 14 14 15 17 17 17 17 19 18 18

ECMWFFLT1_925_spd_018.txt.gz
Wind_Speed
21 20 20 20 20 21 24 25 26 26 26 26 25 25 24 24 24 26 26 24 23 28 33 36 38 40 39 38 37 37 35 34 32 29 27 23 20 18 17 17 14 9 6 7 9 9 10 11 11 11 11 12 12 13 14 15 16 17 17 18 18 19 20
21 21 20 21 21 20 21 24 25 25 26 27 27 26 25 24 24 25 26 24 24 30 36 37 38 39 39 38 38 37 36 35 32 31 29 25 21 19 19 19 17 12 9 8 10 11 11 11 11 11 11 12 13 13 13 15 16 16 17 18 18 19 19
21 21 21 22 22 20 20 21 22 22 24 28 29 27 26 25 26 25 25 27 30 33 36 37 38 39 39 38 37 36 35 35 34 33 31 26 22 20 19 20 19 15 12 10 10 11 11 10 11 11 11 11 12 13 14 16 17 17 17 18 18 18 19
21 21 22 23 23 22 21 21 21 20 22 26 28 28 27 27 28 28 29 33 36 36 35 36 37 38 38 38 37 35 34 33 33 32 29 25 22 21 19 18 19 17 13 11 10 10 11 10 10 11 10 11 12 13 15 17 18 18 18 18 18 19 20
20 20 21 21 22 23 22 22 22 21 22 24 26 27 29 30 31 31 31 35 38 37 35 35 37 38 38 37 37 36 33 32 33 31 28 25 22 20 19 17 17 17 15 12 10 10 10 10 10 10 11 11 12 14 15 16 17 18 18 19 19 19 20
20 20 21 21 22 23 23 23 23 23 23 23 24 27 31 32 31 31 31 33 36 36 35 35 37 40 39 37 37 38 35 32 33 33 30 27 23 20 19 18 16 16 15 14 12 10 10 10 11 11 11 12 13 14 14 14 15 16 17 18 18 19 18
23 23 22 22 23 23 24 25 24 24 24 24 25 28 31 31 31 32 32 32 33 34 35 36 38 39 38 38 38 39 37 33 33 36 33 30 27 22 19 17 16 15 15 14 12 12 11 11 11 11 12 12 12 14 14 14 13 14 14 15 16 17 17
25 25 24 24 25 24 24 26 26 24 23 24 26 28 29 31 32 32 33 33 32 32 34 35 36 36 36 38 39 39 38 35 35 37 33 28 28 26 20 18 17 15 15 14 12 12 12 11 11 12 12 12 12 13 14 13 12 13 13 14 16 17 18
25 26 28 28 27 25 24 25 24 23 22 23 26 28 29 31 32 32 33 34 32 31 32 34 35 35 35 36 37 37 39 38 37 38 34 29 29 27 21 18 18 16 15 14 13 13 12 11 11 12 11 11 12 12 12 11 12 13 14 15 18 19 18
24 26 29 29 26 24 24 25 25 25 26 27 28 29 29 31 32 33 34 34 33 32 32 32 33 34 35 36 36 36 38 38 35 37 37 35 34 30 23 20 18 16 15 14 13 14 13 10 11 12 12 11 12 13 13 12 12 14 15 17 18 18 17
24 27 28 26 24 24 25 27 27 28 28 28 28 30 31 32 33 34 35 35 35 35 34 32 32 32 33 35 36 35 35 32 30 30 32 34 36 33 30 26 21 17 16 15 15 14 12 11 11 11 12 12 12 13 12 12 12 14 17 16 14 13 12
24 26 26 23 22 24 26 27 28 28 28 27 28 30 32 34 35 35 36 36 35 35 36 34 32 32 33 34 34 34 32 29 27 26 26 29 32 31 30 30 26 22 19 17 15 12 12 13 12 11 12 11 11 10 11 12 14 15 16 16 16 16 17
25 24 22 22 22 24 27 26 27 27 27 28 29 30 31 34 36 32 30 35 36 34 36 37 34 32 32 32 31 30 31 30 28 26 25 25 26 25 25 27 26 24 22 18 15 13 13 13 11 10 9 7 6 8 11 14 16 16 16 18 18 19 21
24 22 21 22 23 25 28 27 28 28 27 28 28 29 30 32 34 29 25 32 36 34 35 37 36 34 32 31 28 26 29 30 28 26 25 24 22 21 21 23 23 23 22 19 16 14 13 12 11 10 8 7 9 11 14 15 15 14 15 18 19 22 25
21 20 21 23 23 26 28 29 31 29 27 26 25 27 28 27 30 28 26 31 34 34 35 36 37 36 33 32 30 27 29 30 29 26 25 23 22 20 20 21 22 22 22 20 18 16 15 14 13 12 11 12 12 11 12 13 13 15 16 18 21 25 27
20 20 21 23 24 26 27 29 32 28 25 23 21 23 25 24 26 26 25 27 30 32 33 34 36 35 33 33 31 27 28 30 30 28 24 22 22 21 20 21 22 22 22 21 20 18 15 13 13 12 10 9 8 9 11 12 14 16 16 16 18 20 22
20 20 21 23 24 26 26 27 29 26 21 20 19 20 21 21 23 22 22 24 27 29 29 31 35 34 32 32 31 28 27 29 30 29 27 24 23 22 21 22 23 22 19 17 16 14 12 11 11 11 12 12 12 13 14 14 13 13 12 11 12 13 15
21 21 22 24 27 28 26 24 25 23 19 17 18 20 19 21 22 21 22 24 25 26 27 29 32 33 31 31 30 28 27 28 29 30 30 27 24 22 20 19 21 22 17 14 13 13 13 14 14 15 16 17 18 20 20 18 17 16 12 11 10 10 12
21 22 22 24 26 26 23 21 20 19 16 15 18 19 19 24 24 21 22 23 22 21 23 24 25 28 30 31 29 27 26 27 30 31 32 29 23 18 17 17 20 21 18 15 15 15 15 16 16 17 18 20 21 23 23 22 22 20 16 12 12 12 10
20 21 22 22 21 19 18 17 16 15 14 15 18 19 21 25 25 21 20 22 22 19 18 19 19 22 27 28 27 26 26 27 29 30 31 29 23 18 17 18 18 18 16 15 15 15 15 15 16 17 19 20 20 20 20 20 20 20 18 14 13 12 9
19 20 19 16 14 13 13 12 13 14 13 13 17 19 22 26 27 25 22 20 20 17 15 16 17 19 23 25 25 26 27 27 27 27 29 30 26 21 19 18 16 15 15 15 15 14 14 15 15 15 15 16 16 16 16 16 16 18 19 18 16 14 11
16 15 14 11 10 10 10 10 10 11 11 12 15 18 22 26 28 29 26 20 17 14 14 17 19 19 22 24 24 25 26 26 25 25 27 28 24 18 17 16 16 16 15 15 13 12 11 12 12 12 12 12 13 12 11 12 13 15 17 19 21 20 18
11 11 10 9 8 7 6 6 7 8 9 10 12 16 22 26 27 30 30 26 21 17 15 18 19 20 22 24 24 23 24 25 25 25 24 22 19 17 17 17 17 16 15 12 11 10 8 7 8 9 10 10 10 9 10 11 12 12 14 17 21 23 24
9 9 8 8 7 6 4 3 4 6 7 8 9 13 20 26 26 28 30 29 27 23 20 19 19 21 24 25 23 23 23 24 26 25 23 20 19 20 20 18 16 16 14 11 9 8 6 5 7 8 8 7 7 8 10 11 11 11 11 13 17 19 22
9 9 8 7 7 5 3 2 2 4 5 7 7 9 17 25 26 25 27 28 28 27 26 23 22 23 25 25 24 23 23 23 24 24 22 22 23 22 21 18 16 15 13 9 7 6 5 5 6 6 5 5 6 7 8 10 11 11 11 12 15 17 19
8 8 7 7 6 4 2 2 2 3 5 6 6 6 13 22 25 24 25 26 25 25 25 23 23 24 24 24 23 22 21 22 24 25 25 25 24 22 19 17 16 14 11 7 6 6 6 5 4 3 3 4 5 6 8 10 12 13 13 13 14 17 19
7 6 6 6 5 4 3 3 3 4 4 6 7 6 10 21 25 23 23 22 20 20 21 21 23 23 22 22 22 23 25 27 29 29 27 24 22 19 17 16 14 12 10 8 8 8 6 4 2 1 2 3 5 6 9 11 12 13 14 15 14 14 16
8 7 6 5 5 4 4 4 5 6 6 7 9 7 10 19 24 22 22 22 20 19 19 20 22 23 23 26 28 29 29 29 28 26 24 22 19 17 15 14 12 11 10 10 9 7 5 3 1 1 3 4 5 7 9 11 12 12 13 14 12 10 12
9 8 7 6 6 6 5 5 7 7 8 10 11 10 11 16 22 24 24 24 23 22 22 22 24 25 27 30 33 32 29 27 25 22 20 19 17 15 14 13 12 11 11 10 8 7 5 3 2 3 4 5 6 7 9 11 11 11 12 12 9 8 11
8 8 7 6 8 9 7 6 7 7 8 11 13 13 12 15 23 27 26 25 27 27 25 23 22 23 26 31 32 29 24 23 23 21 18 16 15 14 14 13 13 13 12 10 8 7 5 4 3 3 4 5 6 7 9 11 11 11 11 9 8 9 11
8 9 7 6 8 10 8 5 4 4 8 12 14 13 13 15 24 28 27 29 32 29 24 20 17 17 23 28 28 25 22 22 22 21 19 17 15 14 14 14 13 13 11 9 8 7 5 4 3 4 4 6 7 8 9 10 10 11 10 8 7 8 11
11 10 8 6 5 8 8 5 4 5 10 14 15 15 15 19 26 29 28 32 34 26 20 19 18 16 20 22 20 20 23 24 22 21 20 19 17 15 15 15 14 13 11 9 8 7 5 4 3 3 4 5 7 8 8 9 9 10 10 8 7 8 10
11 10 9 6 2 6 7 5 6 9 12 14 16 16 18 22 28 30 29 32 32 23 17 17 18 17 21 22 19 20 24 23 22 22 21 20 18 17 17 16 14 12 11 10 8 7 5 4 2 2 3 5 7 7 7 9 9 9 8 8 8 9 10
12 10 8 6 2 5 6 6 8 11 13 15 17 18 20 25 29 28 27 29 30 24 19 17 16 16 20 22 21 22 24 22 22 23 21 19 18 18 18 17 14 12 11 10 8 7 5 4 2 2 2 4 6 7 7 7 8 8 7 7 7 9 10
13 12 9 7 5 7 8 7 9 12 14 16 18 20 23 25 23 20 20 23 27 27 25 23 20 18 19 22 24 24 25 24 24 23 22 20 19 19 19 17 15 13 12 10 8 7 5 3 2 1 2 4 5 6 6 7 8 8 8 8 8 9 11
11 11 9 8 8 9 8 7 9 12 14 16 19 22 23 21 15 13 14 16 20 25 26 26 25 23 22 24 25 25 26 26 25 24 22 21 21 21 20 18 16 14 13 10 8 7 5 4 2 1 2 3 4 6 7 8 9 10 10 9 9 10 10